Flight Track Log - Related Links

Times and Time Zones

All times are in EDT time to prevent confusion due to time zone crossing. See the TRS9348 flight status page for this flight to view local times or setup timezone preferences in your user account.

Time Position Orientation Groundspeed Altitude Reporting Facility
EDT Latitude Longitude Course Direction KTS MPH feet Rate Location/Type
Sat 02:55:09 PM 36.0760 -115.1490 270° West 154 177 2,400  Level FlightAware ADS-B
Sat 02:55:34 PM 36.0770 -115.1710 273° West 161 185 3,400 2,000 Climbing FlightAware ADS-B
Sat 02:55:57 PM 36.0770 -115.1950 270° West 202 232 4,000 2,235 Climbing FlightAware ADS-B
Sat 02:56:25 PM 36.0750 -115.2300 266° West 231 266 5,300 2,727 Climbing FlightAware ADS-B
Sat 02:56:30 PM 36.0730 -115.2370 251° West 236 272 5,500 3,000 Climbing FlightAware ADS-B
Sat 02:56:37 PM 36.0700 -115.2450 245° Southwest 239 275 5,900 3,231 Climbing FlightAware ADS-B
Sat 02:56:43 PM 36.0660 -115.2520 235° Southwest 243 280 6,200 3,176 Climbing FlightAware ADS-B
Sat 02:56:54 PM 36.0560 -115.2620 219° Southwest 251 289 6,800 3,200 Climbing FlightAware ADS-B
Sat 02:56:58 PM 36.0510 -115.2650 206° Southwest 254 292 7,000 3,333 Climbing FlightAware ADS-B
Sat 02:57:21 PM 36.0250 -115.2770 200° South 269 310 8,300 3,488 Climbing FlightAware ADS-B
Sat 02:57:41 PM 36.0010 -115.2880 200° South 283 326 9,500 3,368 Climbing FlightAware ADS-B
Sat 02:58:18 PM 35.9520 -115.3040 195° South 316 364 11,500 3,739 Climbing FlightAware ADS-B
Sat 02:58:50 PM 35.9050 -115.3100 186° South 324 373 13,800 4,000 Climbing FlightAware ADS-B
Sat 02:59:21 PM 35.8580 -115.3150 185° South 343 395 15,700 4,027 Climbing FlightAware ADS-B
Sat 03:00:03 PM 35.7910 -115.3080 175° South 352 405 18,700 3,973 Climbing FlightAware ADS-B
Sat 03:00:35 PM 35.7360 -115.3020 175° South 365 420 20,600 3,429 Climbing FlightAware ADS-B
Sat 03:01:13 PM 35.6720 -115.3120 187° South 383 441 22,700 3,184 Climbing FlightAware ADS-B
Sat 03:01:24 PM 35.6560 -115.3250 213° Southwest 390 449 23,200 3,000 Climbing FlightAware ADS-B
Sat 03:02:01 PM 35.6100 -115.3870 228° Southwest 405 466 25,100 3,343 Climbing FlightAware ADS-B
Sat 03:02:34 PM 35.5680 -115.4430 227° Southwest 397 457 27,100 2,451 Climbing FlightAware ADS-B
Sat 03:03:12 PM 35.5210 -115.5050 227° Southwest 385 443 28,000 957 Climbing FlightAware ADS-B
Sat 03:03:43 PM 35.4850 -115.5540 228° Southwest 405 466 28,200 1,588 Climbing FlightAware ADS-B
Sat 03:04:20 PM 35.4390 -115.6150 227° Southwest 411 473 29,800 1,519 Climbing FlightAware ADS-B
Sat 03:05:02 PM 35.3910 -115.6780 227° Southwest 409 471 30,200 308 Climbing FlightAware ADS-B
Sat 03:05:38 PM 35.3520 -115.7300 227° Southwest 409 471 30,200  Level FlightAware ADS-B
Sat 03:06:14 PM 35.3120 -115.7820 227° Southwest 409 471 30,200  Level FlightAware ADS-B
Sat 03:06:50 PM 35.2730 -115.8340 227° Southwest 409 471 30,200  Level FlightAware ADS-B
Sat 03:07:26 PM 35.2330 -115.8860 227° Southwest 409 471 30,200  Level FlightAware ADS-B
Sat 03:08:03 PM 35.1930 -115.9390 227° Southwest 409 471 30,200  Level FlightAware ADS-B
Sat 03:08:39 PM 35.1530 -115.9910 227° Southwest 409 471 30,200  Level FlightAware ADS-B
Sat 03:09:16 PM 35.1130 -116.0440 227° Southwest 409 471 30,200  Level FlightAware ADS-B
Sat 03:09:52 PM 35.0730 -116.0960 227° Southwest 409 471 30,200  Level FlightAware ADS-B
Sat 03:10:28 PM 35.0340 -116.1480 228° Southwest 409 471 30,200  Level FlightAware ADS-B
Sat 03:11:04 PM 34.9940 -116.1990 226° Southwest 409 471 30,200 732 Level FlightAware ADS-B
Sat 03:11:50 PM 34.8640 -116.3760 228° Southwest 426 490 31,200 143 Climbing FlightAware ADS-B
Sat 03:12:28 PM 34.8030 -116.4550 227° Southwest 420 483 30,400 -1,739 Descending FlightAware ADS-B
Sat 03:12:59 PM 34.7630 -116.5060 226° Southwest 412 474 29,200 -2,471 Descending FlightAware ADS-B
Sat 03:13:36 PM 34.7150 -116.5680 227° Southwest 405 466 27,600 -2,583 Descending FlightAware ADS-B
Sat 03:14:11 PM 34.6760 -116.6350 235° Southwest 398 458 26,100 -2,507 Descending FlightAware ADS-B
Sat 03:14:43 PM 34.6420 -116.6920 234° Southwest 392 451 24,800 -2,418 Descending FlightAware ADS-B
Sat 03:15:18 PM 34.6050 -116.7540 234° Southwest 383 441 23,400 -2,417 Descending FlightAware ADS-B
Sat 03:15:55 PM 34.5670 -116.8190 235° Southwest 375 432 21,900 -2,270 Descending FlightAware ADS-B
Sat 03:16:32 PM 34.5320 -116.8810 236° Southwest 370 426 20,600 -2,250 Descending FlightAware ADS-B
Sat 03:17:07 PM 34.4980 -116.9410 235° Southwest 367 422 19,200 -2,294 Descending FlightAware ADS-B
Sat 03:17:40 PM 34.4670 -116.9950 235° Southwest 360 414 18,000 -2,261 Descending FlightAware ADS-B
Sat 03:18:16 PM 34.4310 -117.0540 234° Southwest 352 405 16,600 -2,197 Descending FlightAware ADS-B
Sat 03:18:51 PM 34.3980 -117.1080 233° Southwest 343 395 15,400 -1,929 Descending FlightAware ADS-B
Sat 03:19:12 PM 34.3780 -117.1390 232° Southwest 338 389 14,800 -1,500 Descending FlightAware ADS-B
Sat 03:19:27 PM 34.3560 -117.1540 209° Southwest 342 394 14,500 -1,714 Descending FlightAware ADS-B
Sat 03:19:40 PM 34.3360 -117.1580 189° South 346 398 14,000 -1,714 Descending FlightAware ADS-B
Sat 03:20:16 PM 34.2800 -117.1630 184° South 338 389 13,100 -771 Descending FlightAware ADS-B
Sat 03:20:50 PM 34.2270 -117.1770 192° South 337 388 13,100  Level FlightAware ADS-B
Sat 03:21:27 PM 34.1720 -117.1910 192° South 330 380 13,100  Level FlightAware ADS-B
Sat 03:21:57 PM 34.1250 -117.2040 193° South 331 381 13,100  Level FlightAware ADS-B
Sat 03:22:36 PM 34.0680 -117.2190 192° South 333 383 13,100  Level FlightAware ADS-B
Sat 03:23:09 PM 34.0180 -117.2320 192° South 331 381 13,100 -88 Level FlightAware ADS-B
Sat 03:23:44 PM 33.9660 -117.2460 193° South 333 383 13,000 -656 Descending FlightAware ADS-B
Sat 03:24:13 PM 33.9220 -117.2580 193° South 319 367 12,400 -1,263 Descending FlightAware ADS-B
Sat 03:24:41 PM 33.8830 -117.2710 195° South 304 350 11,800 -1,135 Descending FlightAware ADS-B
Sat 03:24:50 PM 33.8730 -117.2790 214° Southwest 299 344 11,700 -1,200 Descending FlightAware ADS-B
Sat 03:25:01 PM 33.8630 -117.2940 231° Southwest 291 335 11,400 -1,125 Descending FlightAware ADS-B
Sat 03:25:38 PM 33.8480 -117.3450 251° West 246 283 10,800 -1,099 Descending FlightAware ADS-B
Sat 03:26:12 PM 33.8370 -117.3870 253° West 226 260 10,100 -1,250 Descending FlightAware ADS-B
Sat 03:26:26 PM 33.8320 -117.4030 249° West 222 255 9,800 -1,579 Descending FlightAware ADS-B
Sat 03:26:50 PM 33.8250 -117.4310 253° West 222 255 9,100 -1,733 Descending FlightAware ADS-B
Sat 03:27:11 PM 33.8170 -117.4570 250° West 221 254 8,500 -1,622 Descending FlightAware ADS-B
Sat 03:27:27 PM 33.8130 -117.4740 254° West 221 254 8,100 -571 Descending FlightAware ADS-B
Sat 03:27:53 PM 33.8040 -117.5050 251° West 215 247 8,100  Level FlightAware ADS-B
Sat 03:28:10 PM 33.7990 -117.5240 252° West 218 251 8,100 -450 Level FlightAware ADS-B
Sat 03:28:33 PM 33.7910 -117.5510 250° West 218 251 7,800 -1,200 Descending FlightAware ADS-B
Sat 03:28:55 PM 33.7850 -117.5750 253° West 216 249 7,200 -1,714 Descending FlightAware ADS-B
Sat 03:29:15 PM 33.7800 -117.6000 256° West 218 251 6,600 -1,650 Descending FlightAware ADS-B
Sat 03:29:35 PM 33.7800 -117.6230 270° West 217 250 6,100 -1,895 Descending FlightAware ADS-B
Sat 03:29:53 PM 33.7810 -117.6460 273° West 218 251 5,400 -2,045 Descending FlightAware ADS-B
Sat 03:30:19 PM 33.7810 -117.6770 270° West 213 245 4,600 -1,714 Descending FlightAware ADS-B
Sat 03:30:35 PM 33.7810 -117.6950 270° West 210 242 4,200 -1,655 Descending FlightAware ADS-B
Sat 03:30:48 PM 33.7810 -117.7110 270° West 209 241 3,800 -1,895 Descending FlightAware ADS-B
Sat 03:31:13 PM 33.7810 -117.7390 270° West 205 236 3,000 -1,787 Descending FlightAware ADS-B
Sat 03:31:35 PM 33.7820 -117.7640 273° West 200 230 2,400 -737 Descending FlightAware ADS-B
Sat 03:32:10 PM 33.7780 -117.7990 262° West 175 201 2,300 -409 Descending FlightAware ADS-B
Sat 03:32:19 PM 33.7730 -117.8050 225° Southwest 165 190 2,100 -923 Descending FlightAware ADS-B
Sat 03:32:23 PM 33.7700 -117.8080 220° Southwest 159 183 2,100 -857 Level FlightAware ADS-B
Sat 03:32:47 PM 33.7570 -117.8170 210° Southwest 131 151 1,700 -878 Descending FlightAware ADS-B
Sat 03:33:04 PM 33.7490 -117.8230 212° Southwest 120 138 1,500 -529 Descending FlightAware ADS-B
Sat 03:33:21 PM 33.7400 -117.8280 205° Southwest 118 136 1,400 -462 Descending FlightAware ADS-B
Sat 03:33:43 PM 33.7300 -117.8350 210° Southwest 116 133 1,200 -649 Descending FlightAware ADS-B
Sat 03:33:58 PM 33.7230 -117.8390 205° Southwest 113 130 1,000 -585 Descending FlightAware ADS-B
Sat 03:34:24 PM 33.7100 -117.8470 207° Southwest 114 131 800 -522 Descending FlightAware ADS-B
Sat 03:34:44 PM 33.7010 -117.8530 209° Southwest 115 132 600 -615 Descending FlightAware ADS-B
Sat 03:35:03 PM 33.6920 -117.8580 205° Southwest 112 129 400 -255 Descending FlightAware ADS-B
Sat 03:35:31 PM 33.6820 -117.8650 210° Southwest 112 129 400 -203 Level FlightAware ADS-B
Sat 03:36:02 PM 33.6697 -117.8717 210° Southwest 120 138 200 -387 Descending Los Angeles Center
Sat 03:38:00 PM 33.6667 -117.8667 132° Southeast  Level FlightAware Approximate

Login

Don't have an account? Register now (free) for customized features, flight alerts, and more!